Year,Month,Day,Hour,Minute,Value (Times are PST for temperature in C)
2003,05,26,00,00,11.10
2003,05,26,00,01,11.10
2003,05,26,00,02,11.10
2003,05,26,00,03,11.10
2003,05,26,00,04,11.10
2003,05,26,00,05,11.10
2003,05,26,00,06,11.20
2003,05,26,00,07,11.20
2003,05,26,00,08,11.30
2003,05,26,00,09,11.30
2003,05,26,00,10,11.30
2003,05,26,00,11,11.40
2003,05,26,00,12,11.40
2003,05,26,00,13,11.40
2003,05,26,00,14,11.30
2003,05,26,00,15,11.30
2003,05,26,00,16,11.20
2003,05,26,00,17,11.20
2003,05,26,00,18,11.20
2003,05,26,00,19,11.10
2003,05,26,00,20,11.10
2003,05,26,00,21,11.10
2003,05,26,00,22,11.10
2003,05,26,00,23,11.00
2003,05,26,00,24,10.90
2003,05,26,00,25,10.90
2003,05,26,00,26,10.90
2003,05,26,00,27,10.80
2003,05,26,00,28,10.80
2003,05,26,00,29,10.70
2003,05,26,00,30,10.70
2003,05,26,00,31,10.70
2003,05,26,00,32,10.80
2003,05,26,00,33,10.80
2003,05,26,00,34,10.70
2003,05,26,00,35,10.70
2003,05,26,00,36,10.70
2003,05,26,00,37,10.60
2003,05,26,00,38,10.60
2003,05,26,00,39,10.60
2003,05,26,00,40,10.60
2003,05,26,00,41,10.60
2003,05,26,00,42,10.50
2003,05,26,00,43,10.60
2003,05,26,00,44,10.60
2003,05,26,00,45,10.60
2003,05,26,00,46,10.60
2003,05,26,00,47,10.60
2003,05,26,00,48,10.60
2003,05,26,00,49,10.60
2003,05,26,00,50,10.60
2003,05,26,00,51,10.60
2003,05,26,00,52,10.40
2003,05,26,00,53,10.40
2003,05,26,00,54,10.40
2003,05,26,00,55,10.40
2003,05,26,00,56,10.40
2003,05,26,00,57,10.40
2003,05,26,00,58,10.40
2003,05,26,00,59,10.40
2003,05,26,01,00,10.40
2003,05,26,01,01,10.40
2003,05,26,01,02,10.40
2003,05,26,01,03,10.40
2003,05,26,01,04,10.50
2003,05,26,01,05,10.60
2003,05,26,01,06,10.60
2003,05,26,01,07,10.50
2003,05,26,01,08,10.50
2003,05,26,01,09,10.50
2003,05,26,01,10,10.50
2003,05,26,01,11,10.60
2003,05,26,01,12,10.50
2003,05,26,01,13,10.40
2003,05,26,01,14,10.40
2003,05,26,01,15,10.40
2003,05,26,01,16,10.40
2003,05,26,01,17,10.30
2003,05,26,01,18,10.30
2003,05,26,01,19,10.20
2003,05,26,01,20,10.10
2003,05,26,01,21,10.10
2003,05,26,01,22,10.10
2003,05,26,01,23,10.00
2003,05,26,01,24,9.90
2003,05,26,01,25,9.80
2003,05,26,01,26,9.70
2003,05,26,01,27,9.60
2003,05,26,01,28,9.50
2003,05,26,01,29,9.50
2003,05,26,01,30,9.40
2003,05,26,01,31,9.30
2003,05,26,01,32,9.20
2003,05,26,01,33,9.10
2003,05,26,01,34,9.10
2003,05,26,01,35,9.00
2003,05,26,01,36,8.90
2003,05,26,01,37,8.90
2003,05,26,01,38,8.80
2003,05,26,01,39,8.80
2003,05,26,01,40,8.80
2003,05,26,01,41,8.70
2003,05,26,01,42,8.70
2003,05,26,01,43,8.70
2003,05,26,01,44,8.70
2003,05,26,01,45,8.60
2003,05,26,01,46,8.60
2003,05,26,01,47,8.60
2003,05,26,01,48,8.70
2003,05,26,01,49,8.70
2003,05,26,01,50,8.70
2003,05,26,01,51,8.70
2003,05,26,01,52,8.70
2003,05,26,01,53,8.70
2003,05,26,01,54,8.80
2003,05,26,01,55,8.80
2003,05,26,01,56,8.90
2003,05,26,01,57,8.90
2003,05,26,01,58,9.00
2003,05,26,01,59,9.00
2003,05,26,02,00,8.90
2003,05,26,02,01,8.90
2003,05,26,02,02,8.90
2003,05,26,02,03,8.90
2003,05,26,02,04,8.90
2003,05,26,02,05,8.80
2003,05,26,02,06,8.80
2003,05,26,02,07,8.70
2003,05,26,02,08,8.70
2003,05,26,02,09,8.70
2003,05,26,02,10,8.70
2003,05,26,02,11,8.70
2003,05,26,02,12,8.70
2003,05,26,02,13,8.60
2003,05,26,02,14,8.60
2003,05,26,02,15,8.60
2003,05,26,02,16,8.70
2003,05,26,02,17,8.70
2003,05,26,02,18,8.70
2003,05,26,02,19,8.70
2003,05,26,02,20,8.70
2003,05,26,02,21,8.70
2003,05,26,02,22,8.70
2003,05,26,02,23,8.80
2003,05,26,02,24,8.80
2003,05,26,02,25,8.90
2003,05,26,02,26,8.90
2003,05,26,02,27,8.90
2003,05,26,02,28,8.90
2003,05,26,02,29,8.90
2003,05,26,02,30,8.90
2003,05,26,02,31,9.00
2003,05,26,02,32,9.10
2003,05,26,02,33,9.10
2003,05,26,02,34,9.00
2003,05,26,02,35,9.00
2003,05,26,02,36,8.90
2003,05,26,02,37,8.90
2003,05,26,02,38,8.80
2003,05,26,02,39,8.80
2003,05,26,02,40,8.70
2003,05,26,02,41,8.70
2003,05,26,02,42,8.70
2003,05,26,02,43,8.70
2003,05,26,02,44,8.70
2003,05,26,02,45,8.70
2003,05,26,02,46,8.60
2003,05,26,02,47,8.50
2003,05,26,02,48,8.50
2003,05,26,02,49,8.40
2003,05,26,02,50,8.40
2003,05,26,02,51,8.30
2003,05,26,02,52,8.30
2003,05,26,02,53,8.20
2003,05,26,02,54,8.20
2003,05,26,02,55,8.20
2003,05,26,02,56,8.20
2003,05,26,02,57,8.20
2003,05,26,02,58,8.20
2003,05,26,02,59,8.20
2003,05,26,03,00,8.10
2003,05,26,03,01,8.10
2003,05,26,03,02,8.10
2003,05,26,03,03,8.10
2003,05,26,03,04,8.10
2003,05,26,03,05,8.10
2003,05,26,03,06,8.10
2003,05,26,03,07,8.10
2003,05,26,03,08,8.10
2003,05,26,03,09,8.10
2003,05,26,03,10,8.20
2003,05,26,03,11,8.20
2003,05,26,03,12,8.20
2003,05,26,03,13,8.20
2003,05,26,03,14,8.20
2003,05,26,03,15,8.20
2003,05,26,03,16,8.20
2003,05,26,03,17,8.20
2003,05,26,03,18,8.10
2003,05,26,03,19,8.00
2003,05,26,03,20,8.00
2003,05,26,03,21,7.90
2003,05,26,03,22,7.90
2003,05,26,03,23,8.00
2003,05,26,03,24,8.00
2003,05,26,03,25,8.00
2003,05,26,03,26,8.00
2003,05,26,03,27,7.90
2003,05,26,03,28,7.90
2003,05,26,03,29,7.80
2003,05,26,03,30,7.80
2003,05,26,03,31,7.80
2003,05,26,03,32,7.70
2003,05,26,03,33,7.70
2003,05,26,03,34,7.70
2003,05,26,03,35,7.70
2003,05,26,03,36,7.60
2003,05,26,03,37,7.60
2003,05,26,03,38,7.60
2003,05,26,03,39,7.50
2003,05,26,03,40,7.50
2003,05,26,03,41,7.40
2003,05,26,03,42,7.40
2003,05,26,03,43,7.40
2003,05,26,03,44,7.40
2003,05,26,03,45,7.50
2003,05,26,03,46,7.50
2003,05,26,03,47,7.40
2003,05,26,03,48,7.40
2003,05,26,03,49,7.40
2003,05,26,03,50,7.40
2003,05,26,03,51,7.40
2003,05,26,03,52,7.40
2003,05,26,03,53,7.40
2003,05,26,03,54,7.40
2003,05,26,03,55,7.40
2003,05,26,03,56,7.40
2003,05,26,03,57,7.50
2003,05,26,03,58,7.60
2003,05,26,03,59,7.60
2003,05,26,04,00,7.60
2003,05,26,04,01,7.70
2003,05,26,04,02,7.70
2003,05,26,04,03,7.80
2003,05,26,04,04,7.80
2003,05,26,04,05,7.80
2003,05,26,04,06,7.80
2003,05,26,04,07,7.80
2003,05,26,04,08,7.90
2003,05,26,04,09,7.90
2003,05,26,04,10,7.90
2003,05,26,04,11,7.90
2003,05,26,04,12,7.90
2003,05,26,04,13,7.90
2003,05,26,04,14,8.00
2003,05,26,04,15,8.00
2003,05,26,04,16,8.10
2003,05,26,04,17,8.10
2003,05,26,04,18,8.20
2003,05,26,04,19,8.20
2003,05,26,04,20,8.20
2003,05,26,04,21,8.20
2003,05,26,04,22,8.20
2003,05,26,04,23,8.30
2003,05,26,04,24,8.30
2003,05,26,04,25,8.40
2003,05,26,04,26,8.40
2003,05,26,04,27,8.40
2003,05,26,04,28,8.50
2003,05,26,04,29,8.50
2003,05,26,04,30,8.50
2003,05,26,04,31,8.60
2003,05,26,04,32,8.60
2003,05,26,04,33,8.60
2003,05,26,04,34,8.60
2003,05,26,04,35,8.60
2003,05,26,04,36,8.60
2003,05,26,04,37,8.70
2003,05,26,04,38,8.70
2003,05,26,04,39,8.70
2003,05,26,04,40,8.70
2003,05,26,04,41,8.80
2003,05,26,04,42,8.80
2003,05,26,04,43,8.80
2003,05,26,04,44,8.70
2003,05,26,04,45,8.70
2003,05,26,04,46,8.60
2003,05,26,04,47,8.60
2003,05,26,04,48,8.50
2003,05,26,04,49,8.50
2003,05,26,04,50,8.50
2003,05,26,04,51,8.40
2003,05,26,04,52,8.30
2003,05,26,04,53,8.20
2003,05,26,04,54,8.10
2003,05,26,04,55,8.10
2003,05,26,04,56,8.00
2003,05,26,04,57,7.90
2003,05,26,04,58,7.80
2003,05,26,04,59,7.80
2003,05,26,05,00,7.70
2003,05,26,05,01,7.70
2003,05,26,05,02,7.60
2003,05,26,05,03,7.70
2003,05,26,05,04,7.60
2003,05,26,05,05,7.60
2003,05,26,05,06,7.50
2003,05,26,05,07,7.50
2003,05,26,05,08,7.50
2003,05,26,05,09,7.40
2003,05,26,05,10,7.40
2003,05,26,05,11,7.40
2003,05,26,05,12,7.40
2003,05,26,05,13,7.30
2003,05,26,05,14,7.30
2003,05,26,05,15,7.30
2003,05,26,05,16,7.40
2003,05,26,05,17,7.40
2003,05,26,05,18,7.40
2003,05,26,05,19,7.40
2003,05,26,05,20,7.40
2003,05,26,05,21,7.40
2003,05,26,05,22,7.40
2003,05,26,05,23,7.40
2003,05,26,05,24,7.50
2003,05,26,05,25,7.50
2003,05,26,05,26,7.50
2003,05,26,05,27,7.50
2003,05,26,05,28,7.50
2003,05,26,05,29,7.60
2003,05,26,05,30,7.60
2003,05,26,05,31,7.60
2003,05,26,05,32,7.70
2003,05,26,05,33,7.80
2003,05,26,05,34,7.80
2003,05,26,05,35,7.80
2003,05,26,05,36,7.80
2003,05,26,05,37,7.80
2003,05,26,05,38,7.80
2003,05,26,05,39,7.90
2003,05,26,05,40,7.90
2003,05,26,05,41,8.00
2003,05,26,05,42,7.90
2003,05,26,05,43,8.00
2003,05,26,05,44,8.10
2003,05,26,05,45,8.10
2003,05,26,05,46,8.20
2003,05,26,05,47,8.20
2003,05,26,05,48,8.20
2003,05,26,05,49,8.20
2003,05,26,05,50,8.20
2003,05,26,05,51,8.10
2003,05,26,05,52,8.00
2003,05,26,05,53,8.00
2003,05,26,05,54,7.90
2003,05,26,05,55,7.80
2003,05,26,05,56,7.70
2003,05,26,05,57,7.70
2003,05,26,05,58,7.70
2003,05,26,05,59,7.70
2003,05,26,06,00,7.80
2003,05,26,06,01,7.80
2003,05,26,06,02,7.80
2003,05,26,06,03,7.90
2003,05,26,06,04,8.00
2003,05,26,06,05,8.00
2003,05,26,06,06,8.20
2003,05,26,06,07,8.20
2003,05,26,06,08,8.40
2003,05,26,06,09,8.40
2003,05,26,06,10,8.50
2003,05,26,06,11,8.50
2003,05,26,06,12,8.60
2003,05,26,06,13,8.60
2003,05,26,06,14,8.70
2003,05,26,06,15,8.70
2003,05,26,06,16,8.70
2003,05,26,06,17,8.70
2003,05,26,06,18,8.70
2003,05,26,06,19,8.70
2003,05,26,06,20,8.80
2003,05,26,06,21,8.80
2003,05,26,06,22,8.70
2003,05,26,06,23,8.70
2003,05,26,06,24,8.70
2003,05,26,06,25,8.80
2003,05,26,06,26,8.80
2003,05,26,06,27,8.90
2003,05,26,06,28,8.90
2003,05,26,06,29,8.90
2003,05,26,06,30,8.90
2003,05,26,06,31,8.90
2003,05,26,06,32,9.00
2003,05,26,06,33,9.00
2003,05,26,06,34,9.00
2003,05,26,06,35,9.10
2003,05,26,06,36,9.10
2003,05,26,06,37,9.10
2003,05,26,06,38,9.10
2003,05,26,06,39,9.10
2003,05,26,06,40,9.10
2003,05,26,06,41,9.10
2003,05,26,06,42,9.10
2003,05,26,06,43,9.10
2003,05,26,06,44,9.10
2003,05,26,06,45,9.10
2003,05,26,06,46,9.00
2003,05,26,06,47,9.10
2003,05,26,06,48,9.10
2003,05,26,06,49,9.10
2003,05,26,06,50,9.10
2003,05,26,06,51,9.10
2003,05,26,06,52,9.10
2003,05,26,06,53,9.10
2003,05,26,06,54,9.10
2003,05,26,06,55,9.10
2003,05,26,06,56,9.10
2003,05,26,06,57,9.10
2003,05,26,06,58,9.10
2003,05,26,06,59,9.10
2003,05,26,07,00,9.10
2003,05,26,07,01,9.10
2003,05,26,07,02,9.10
2003,05,26,07,03,9.10
2003,05,26,07,04,9.20
2003,05,26,07,05,9.20
2003,05,26,07,06,9.20
2003,05,26,07,07,9.20
2003,05,26,07,08,9.20
2003,05,26,07,09,9.20
2003,05,26,07,10,9.20
2003,05,26,07,11,9.20
2003,05,26,07,12,9.30
2003,05,26,07,13,9.30
2003,05,26,07,14,9.30
2003,05,26,07,15,9.40
2003,05,26,07,16,9.40
2003,05,26,07,17,9.50
2003,05,26,07,18,9.50
2003,05,26,07,19,9.60
2003,05,26,07,20,9.60
2003,05,26,07,21,9.60
2003,05,26,07,22,9.60
2003,05,26,07,23,9.60
2003,05,26,07,24,9.70
2003,05,26,07,25,9.70
2003,05,26,07,26,9.70
2003,05,26,07,27,9.70
2003,05,26,07,28,9.80
2003,05,26,07,29,9.80
2003,05,26,07,30,9.80
2003,05,26,07,31,9.80
2003,05,26,07,32,9.70
2003,05,26,07,33,9.70
2003,05,26,07,34,9.80
2003,05,26,07,35,9.80
2003,05,26,07,36,9.80
2003,05,26,07,37,9.80
2003,05,26,07,38,9.90
2003,05,26,07,39,10.00
2003,05,26,07,40,10.10
2003,05,26,07,41,10.10
2003,05,26,07,42,10.10
2003,05,26,07,43,10.20
2003,05,26,07,44,10.20
2003,05,26,07,45,10.30
2003,05,26,07,46,10.30
2003,05,26,07,47,10.30
2003,05,26,07,48,10.30
2003,05,26,07,49,10.30
2003,05,26,07,50,10.30
2003,05,26,07,51,10.30
2003,05,26,07,52,10.20
2003,05,26,07,53,10.20
2003,05,26,07,54,10.20
2003,05,26,07,55,10.20
2003,05,26,07,56,10.20
2003,05,26,07,57,10.20
2003,05,26,07,58,10.20
2003,05,26,07,59,10.20
2003,05,26,08,00,10.20
2003,05,26,08,01,10.20
2003,05,26,08,02,10.20
2003,05,26,08,03,10.10
2003,05,26,08,04,10.10
2003,05,26,08,05,10.10
2003,05,26,08,06,10.10
2003,05,26,08,07,10.10
2003,05,26,08,08,10.10
2003,05,26,08,09,10.10
2003,05,26,08,10,10.10
2003,05,26,08,11,10.00
2003,05,26,08,12,9.90
2003,05,26,08,13,9.90
2003,05,26,08,14,10.10
2003,05,26,08,15,10.10
2003,05,26,08,16,10.00
2003,05,26,08,17,9.90
2003,05,26,08,18,9.90
2003,05,26,08,19,9.90
2003,05,26,08,20,9.90
2003,05,26,08,21,9.90
2003,05,26,08,22,9.90
2003,05,26,08,23,9.80
2003,05,26,08,24,9.80
2003,05,26,08,25,9.80
2003,05,26,08,26,9.80
2003,05,26,08,27,9.80
2003,05,26,08,28,9.80
2003,05,26,08,29,9.80
2003,05,26,08,30,9.90
2003,05,26,08,31,9.90
2003,05,26,08,32,10.10
2003,05,26,08,33,10.10
2003,05,26,08,34,10.10
2003,05,26,08,35,10.10
2003,05,26,08,36,10.10
2003,05,26,08,37,10.00
2003,05,26,08,38,10.00
2003,05,26,08,39,10.10
2003,05,26,08,40,10.10
2003,05,26,08,41,10.20
2003,05,26,08,42,10.20
2003,05,26,08,43,10.20
2003,05,26,08,44,10.30
2003,05,26,08,45,10.30
2003,05,26,08,46,10.20
2003,05,26,08,47,10.20
2003,05,26,08,48,10.10
2003,05,26,08,49,10.10
2003,05,26,08,50,10.10
2003,05,26,08,51,10.10
2003,05,26,08,52,10.10
2003,05,26,08,53,10.10
2003,05,26,08,54,10.10
2003,05,26,08,55,10.10
2003,05,26,08,56,10.00
2003,05,26,08,57,9.90
2003,05,26,08,58,9.90
2003,05,26,08,59,9.90
2003,05,26,09,00,9.80
2003,05,26,09,01,9.80
2003,05,26,09,02,9.70
2003,05,26,09,03,9.70
2003,05,26,09,04,9.70
2003,05,26,09,05,9.70
2003,05,26,09,06,9.70
2003,05,26,09,07,9.70
2003,05,26,09,08,9.80
2003,05,26,09,09,9.90
2003,05,26,09,10,9.90
2003,05,26,09,11,10.00
2003,05,26,09,12,10.10
2003,05,26,09,13,10.10
2003,05,26,09,14,10.10
2003,05,26,09,15,10.10
2003,05,26,09,16,10.10
2003,05,26,09,17,10.10
2003,05,26,09,18,10.10
2003,05,26,09,19,10.20
2003,05,26,09,20,10.30
2003,05,26,09,21,10.40
2003,05,26,09,22,10.40
2003,05,26,09,23,10.60
2003,05,26,09,24,10.70
2003,05,26,09,25,10.80
2003,05,26,09,26,10.90
2003,05,26,09,27,11.00
2003,05,26,09,28,11.10
2003,05,26,09,29,11.20
2003,05,26,09,30,11.30
2003,05,26,09,31,11.50
2003,05,26,09,32,11.60
2003,05,26,09,33,11.70
2003,05,26,09,34,11.80
2003,05,26,09,35,11.80
2003,05,26,09,36,12.00
2003,05,26,09,37,12.20
2003,05,26,09,38,12.30
2003,05,26,09,39,12.40
2003,05,26,09,40,12.50
2003,05,26,09,41,12.50
2003,05,26,09,42,12.40
2003,05,26,09,43,12.30
2003,05,26,09,44,12.20
2003,05,26,09,45,12.10
2003,05,26,09,46,12.00
2003,05,26,09,47,12.10
2003,05,26,09,48,12.20
2003,05,26,09,49,12.20
2003,05,26,09,50,12.30
2003,05,26,09,51,12.40
2003,05,26,09,52,12.50
2003,05,26,09,53,12.60
2003,05,26,09,54,12.50
2003,05,26,09,55,12.50
2003,05,26,09,56,12.50
2003,05,26,09,57,12.50
2003,05,26,09,58,12.40
2003,05,26,09,59,12.30
2003,05,26,10,00,12.40
2003,05,26,10,01,12.20
2003,05,26,10,02,12.10
2003,05,26,10,03,12.10
2003,05,26,10,04,12.00
2003,05,26,10,05,12.00
2003,05,26,10,06,12.00
2003,05,26,10,07,12.10
2003,05,26,10,08,12.10
2003,05,26,10,09,12.00
2003,05,26,10,10,12.00
2003,05,26,10,11,12.00
2003,05,26,10,12,12.00
2003,05,26,10,13,12.10
2003,05,26,10,14,12.10
2003,05,26,10,15,12.20
2003,05,26,10,16,12.20
2003,05,26,10,17,12.20
2003,05,26,10,18,12.10
2003,05,26,10,19,12.10
2003,05,26,10,20,12.00
2003,05,26,10,21,12.00
2003,05,26,10,22,12.10
2003,05,26,10,23,12.10
2003,05,26,10,24,12.20
2003,05,26,10,25,12.30
2003,05,26,10,26,12.40
2003,05,26,10,27,12.70
2003,05,26,10,28,12.90
2003,05,26,10,29,13.10
2003,05,26,10,30,13.20
2003,05,26,10,31,13.20
2003,05,26,10,32,13.20
2003,05,26,10,33,13.30
2003,05,26,10,34,13.20
2003,05,26,10,35,13.30
2003,05,26,10,36,13.20
2003,05,26,10,37,13.20
2003,05,26,10,38,13.10
2003,05,26,10,39,13.00
2003,05,26,10,40,12.90
2003,05,26,10,41,12.90
2003,05,26,10,42,12.80
2003,05,26,10,43,12.90
2003,05,26,10,44,12.80
2003,05,26,10,45,12.90
2003,05,26,10,46,12.80
2003,05,26,10,47,12.60
2003,05,26,10,48,12.40
2003,05,26,10,49,12.30
2003,05,26,10,50,12.30
2003,05,26,10,51,12.40
2003,05,26,10,52,12.30
2003,05,26,10,53,12.20
2003,05,26,10,54,12.20
2003,05,26,10,55,12.30
2003,05,26,10,56,12.30
2003,05,26,10,57,12.50
2003,05,26,10,58,12.60
2003,05,26,10,59,12.60
2003,05,26,11,00,12.70
2003,05,26,11,01,12.60
2003,05,26,11,02,12.60
2003,05,26,11,03,12.50
2003,05,26,11,04,12.50
2003,05,26,11,05,12.50
2003,05,26,11,06,12.50
2003,05,26,11,07,12.60
2003,05,26,11,08,12.60
2003,05,26,11,09,12.70
2003,05,26,11,10,12.90
2003,05,26,11,11,13.10
2003,05,26,11,12,13.20
2003,05,26,11,13,13.30
2003,05,26,11,14,13.30
2003,05,26,11,15,13.30
2003,05,26,11,16,13.20
2003,05,26,11,17,13.20
2003,05,26,11,18,13.20
2003,05,26,11,19,13.20
2003,05,26,11,20,13.20
2003,05,26,11,21,13.30
2003,05,26,11,22,13.20
2003,05,26,11,23,13.20
2003,05,26,11,24,13.10
2003,05,26,11,25,13.00
2003,05,26,11,26,13.00
2003,05,26,11,27,13.00
2003,05,26,11,28,13.00
2003,05,26,11,29,13.30
2003,05,26,11,30,13.50
2003,05,26,11,41,13.30
2003,05,26,11,42,13.30
2003,05,26,11,43,13.30
2003,05,26,11,44,13.20
2003,05,26,11,45,13.00
2003,05,26,11,46,13.00
2003,05,26,11,47,12.90
2003,05,26,11,48,12.90
2003,05,26,11,49,13.00
2003,05,26,11,50,13.20
2003,05,26,11,51,13.30
2003,05,26,11,52,13.30
2003,05,26,11,53,13.40
2003,05,26,11,54,13.40
2003,05,26,11,55,13.50
2003,05,26,11,56,13.70
2003,05,26,11,57,13.80
2003,05,26,11,58,13.90
2003,05,26,11,59,13.80
2003,05,26,12,00,13.80
2003,05,26,12,01,13.80
2003,05,26,12,02,13.80
2003,05,26,12,03,13.90
2003,05,26,12,04,14.10
2003,05,26,12,05,14.20
2003,05,26,12,06,14.10
2003,05,26,12,07,14.00
2003,05,26,12,08,14.10
2003,05,26,12,09,14.20
2003,05,26,12,10,14.20
2003,05,26,12,11,14.20
2003,05,26,12,12,14.20
2003,05,26,12,13,14.20
2003,05,26,12,14,14.20
2003,05,26,12,15,14.20
2003,05,26,12,16,14.10
2003,05,26,12,17,14.00
2003,05,26,12,18,14.10
2003,05,26,12,19,14.10
2003,05,26,12,20,14.20
2003,05,26,12,21,14.20
2003,05,26,12,22,14.10
2003,05,26,12,23,14.20
2003,05,26,12,24,14.20
2003,05,26,12,25,14.20
2003,05,26,12,26,14.20
2003,05,26,12,27,14.10
2003,05,26,12,28,14.10
2003,05,26,12,29,14.20
2003,05,26,12,30,14.50
2003,05,26,12,31,14.50
2003,05,26,12,32,14.50
2003,05,26,12,33,14.50
2003,05,26,12,34,14.50
2003,05,26,12,35,14.30
2003,05,26,12,36,14.20
2003,05,26,12,37,14.00
2003,05,26,12,38,13.90
2003,05,26,12,39,13.70
2003,05,26,12,40,13.70
2003,05,26,12,41,13.70
2003,05,26,12,42,13.80
2003,05,26,12,43,13.80
2003,05,26,12,44,13.90
2003,05,26,12,45,13.80
2003,05,26,12,46,13.80
2003,05,26,12,47,13.90
2003,05,26,12,48,13.90
2003,05,26,12,49,14.00
2003,05,26,12,50,14.00
2003,05,26,12,51,14.00
2003,05,26,12,52,14.00
2003,05,26,12,53,13.90
2003,05,26,12,54,13.90
2003,05,26,12,55,13.90
2003,05,26,12,56,14.20
2003,05,26,12,57,14.20
2003,05,26,12,58,14.40
2003,05,26,12,59,14.60
2003,05,26,13,00,14.50
2003,05,26,13,01,14.60
2003,05,26,13,02,14.60
2003,05,26,13,03,14.50
2003,05,26,13,04,14.60
2003,05,26,13,05,14.80
2003,05,26,13,06,15.00
2003,05,26,13,07,15.10
2003,05,26,13,08,15.20
2003,05,26,13,09,15.30
2003,05,26,13,10,15.40
2003,05,26,13,11,15.50
2003,05,26,13,12,15.50
2003,05,26,13,13,15.40
2003,05,26,13,14,15.20
2003,05,26,13,15,15.30
2003,05,26,13,16,15.40
2003,05,26,13,17,15.40
2003,05,26,13,18,15.40
2003,05,26,13,19,15.30
2003,05,26,13,20,15.20
2003,05,26,13,21,15.00
2003,05,26,13,22,14.90
2003,05,26,13,23,15.00
2003,05,26,13,24,15.00
2003,05,26,13,25,15.10
2003,05,26,13,26,15.10
2003,05,26,13,27,15.20
2003,05,26,13,28,15.10
2003,05,26,13,29,15.10
2003,05,26,13,30,15.00
2003,05,26,13,31,14.90
2003,05,26,13,32,14.90
2003,05,26,13,33,14.80
2003,05,26,13,34,14.90
2003,05,26,13,35,15.00
2003,05,26,13,36,15.00
2003,05,26,13,37,15.00
2003,05,26,13,38,15.00
2003,05,26,13,39,15.00
2003,05,26,13,40,15.10
2003,05,26,13,41,15.10
2003,05,26,13,42,15.10
2003,05,26,13,43,15.20
2003,05,26,13,44,15.20
2003,05,26,13,45,15.10
2003,05,26,13,46,15.00
2003,05,26,13,47,15.00
2003,05,26,13,48,15.00
2003,05,26,13,49,15.00
2003,05,26,13,50,15.20
2003,05,26,13,51,15.40
2003,05,26,13,52,15.50
2003,05,26,13,53,15.50
2003,05,26,13,54,15.60
2003,05,26,13,55,15.50
2003,05,26,13,56,15.60
2003,05,26,13,57,15.60
2003,05,26,13,58,15.50
2003,05,26,13,59,15.40
2003,05,26,14,00,15.50
2003,05,26,14,01,15.60
2003,05,26,14,02,15.60
2003,05,26,14,03,15.40
2003,05,26,14,04,15.30
2003,05,26,14,05,15.30
2003,05,26,14,06,15.30
2003,05,26,14,07,15.30
2003,05,26,14,08,15.30
2003,05,26,14,09,15.40
2003,05,26,14,10,15.30
2003,05,26,14,11,15.40
2003,05,26,14,12,15.50
2003,05,26,14,13,15.70
2003,05,26,14,14,15.60
2003,05,26,14,15,15.50
2003,05,26,14,16,15.50
2003,05,26,14,17,15.50
2003,05,26,14,18,15.40
2003,05,26,14,19,15.40
2003,05,26,14,20,15.50
2003,05,26,14,21,15.60
2003,05,26,14,22,15.60
2003,05,26,14,23,15.60
2003,05,26,14,24,15.70
2003,05,26,14,25,15.80
2003,05,26,14,26,16.00
2003,05,26,14,27,16.10
2003,05,26,14,28,16.10
2003,05,26,14,29,16.20
2003,05,26,14,30,16.30
2003,05,26,14,31,16.40
2003,05,26,14,32,16.40
2003,05,26,14,33,16.40
2003,05,26,14,34,16.10
2003,05,26,14,35,16.20
2003,05,26,14,36,16.20
2003,05,26,14,37,16.10
2003,05,26,14,38,15.90
2003,05,26,14,39,15.80
2003,05,26,14,40,15.60
2003,05,26,14,41,15.50
2003,05,26,14,42,15.50
2003,05,26,14,43,15.40
2003,05,26,14,44,15.40
2003,05,26,14,45,15.40
2003,05,26,14,46,15.40
2003,05,26,14,47,15.30
2003,05,26,14,48,15.20
2003,05,26,14,49,15.20
2003,05,26,14,50,15.30
2003,05,26,14,51,15.30
2003,05,26,14,52,15.30
2003,05,26,14,53,15.20
2003,05,26,14,54,15.30
2003,05,26,14,55,15.40
2003,05,26,14,56,15.40
2003,05,26,14,57,15.40
2003,05,26,14,58,15.30
2003,05,26,14,59,15.20
2003,05,26,15,00,15.00
2003,05,26,15,01,14.90
2003,05,26,15,02,14.90
2003,05,26,15,03,14.90
2003,05,26,15,04,15.00
2003,05,26,15,05,15.00
2003,05,26,15,06,15.00
2003,05,26,15,07,15.00
2003,05,26,15,08,15.00
2003,05,26,15,09,15.00
2003,05,26,15,10,15.10
2003,05,26,15,11,15.10
2003,05,26,15,12,15.20
2003,05,26,15,13,15.10
2003,05,26,15,14,15.00
2003,05,26,15,15,15.00
2003,05,26,15,16,15.00
2003,05,26,15,17,15.10
2003,05,26,15,18,15.10
2003,05,26,15,19,15.10
2003,05,26,15,20,15.10
2003,05,26,15,21,15.20
2003,05,26,15,22,15.20
2003,05,26,15,23,15.30
2003,05,26,15,24,15.20
2003,05,26,15,25,15.30
2003,05,26,15,26,15.30
2003,05,26,15,27,15.30
2003,05,26,15,28,15.30
2003,05,26,15,29,15.30
2003,05,26,15,30,15.20
2003,05,26,15,31,15.20
2003,05,26,15,32,15.20
2003,05,26,15,33,15.30
2003,05,26,15,34,15.30
2003,05,26,15,35,15.30
2003,05,26,15,36,15.40
2003,05,26,15,37,15.40
2003,05,26,15,38,15.20
2003,05,26,15,39,15.10
2003,05,26,15,40,15.00
2003,05,26,15,41,14.80
2003,05,26,15,42,14.80
2003,05,26,15,43,14.80
2003,05,26,15,44,14.80
2003,05,26,15,45,14.80
2003,05,26,15,46,14.80
2003,05,26,15,47,14.90
2003,05,26,15,48,14.90
2003,05,26,15,49,14.90
2003,05,26,15,50,14.90
2003,05,26,15,51,15.00
2003,05,26,15,52,15.00
2003,05,26,15,53,14.90
2003,05,26,15,54,15.00
2003,05,26,15,55,15.00
2003,05,26,15,56,14.90
2003,05,26,15,57,14.80
2003,05,26,15,58,14.90
2003,05,26,15,59,14.80
2003,05,26,16,00,14.90
2003,05,26,16,01,14.90
2003,05,26,16,02,14.90
2003,05,26,16,03,15.00
2003,05,26,16,04,15.10
2003,05,26,16,05,15.10
2003,05,26,16,06,15.00
2003,05,26,16,07,15.00
2003,05,26,16,08,15.00
2003,05,26,16,09,15.10
2003,05,26,16,10,15.10
2003,05,26,16,11,15.10
2003,05,26,16,12,15.10
2003,05,26,16,13,15.00
2003,05,26,16,14,15.10
2003,05,26,16,15,15.10
2003,05,26,16,16,15.20
2003,05,26,16,17,15.20
2003,05,26,16,18,15.20
2003,05,26,16,19,15.10
2003,05,26,16,20,15.10
2003,05,26,16,21,15.00
2003,05,26,16,22,15.00
2003,05,26,16,23,15.10
2003,05,26,16,24,15.20
2003,05,26,16,25,15.30
2003,05,26,16,26,15.40
2003,05,26,16,27,15.40
2003,05,26,16,28,15.40
2003,05,26,16,29,15.50
2003,05,26,16,30,15.60
2003,05,26,16,31,15.60
2003,05,26,16,32,15.60
2003,05,26,16,33,15.80
2003,05,26,16,34,15.80
2003,05,26,16,35,15.90
2003,05,26,16,36,15.90
2003,05,26,16,37,15.90
2003,05,26,16,38,15.80
2003,05,26,16,39,15.70
2003,05,26,16,40,15.70
2003,05,26,16,41,15.70
2003,05,26,16,42,15.50
2003,05,26,16,43,15.40
2003,05,26,16,44,15.30
2003,05,26,16,45,15.20
2003,05,26,16,46,15.10
2003,05,26,16,47,15.10
2003,05,26,16,48,15.10
2003,05,26,16,49,15.10
2003,05,26,16,50,15.10
2003,05,26,16,51,15.20
2003,05,26,16,52,15.20
2003,05,26,16,53,15.20
2003,05,26,16,54,15.20
2003,05,26,16,55,15.10
2003,05,26,16,56,15.10
2003,05,26,16,57,15.00
2003,05,26,16,58,15.00
2003,05,26,16,59,15.00
2003,05,26,17,00,14.90
2003,05,26,17,01,14.90
2003,05,26,17,02,14.90
2003,05,26,17,03,14.90
2003,05,26,17,04,14.90
2003,05,26,17,05,14.80
2003,05,26,17,06,14.80
2003,05,26,17,07,14.90
2003,05,26,17,08,15.00
2003,05,26,17,09,15.10
2003,05,26,17,10,15.30
2003,05,26,17,11,15.30
2003,05,26,17,12,15.40
2003,05,26,17,13,15.40
2003,05,26,17,14,15.40
2003,05,26,17,15,15.40
2003,05,26,17,16,15.40
2003,05,26,17,17,15.40
2003,05,26,17,18,15.40
2003,05,26,17,19,15.30
2003,05,26,17,20,15.30
2003,05,26,17,21,15.30
2003,05,26,17,22,15.40
2003,05,26,17,23,15.50
2003,05,26,17,24,15.50
2003,05,26,17,25,15.60
2003,05,26,17,26,15.70
2003,05,26,17,27,15.70
2003,05,26,17,28,15.80
2003,05,26,17,29,15.90
2003,05,26,17,30,16.10
2003,05,26,17,31,16.20
2003,05,26,17,32,16.30
2003,05,26,17,33,16.30
2003,05,26,17,34,16.30
2003,05,26,17,35,16.30
2003,05,26,17,36,16.20
2003,05,26,17,37,16.20
2003,05,26,17,38,16.10
2003,05,26,17,39,16.10
2003,05,26,17,40,16.10
2003,05,26,17,41,16.10
2003,05,26,17,42,16.20
2003,05,26,17,43,16.10
2003,05,26,17,44,16.20
2003,05,26,17,45,16.20
2003,05,26,17,46,16.10
2003,05,26,17,47,16.10